This demonstration page uses our WeatherBlox Daily Observations layout. Learn more.

Left ArrowRight Arrow

39.95238, -75.16362

Hourly Observations for April 9, 2022

Temp ( °F °C ) Dew Point ( °F °C ) Humidity (%) Winds ( mph kmh ) Pressure ( in mb ) Visibility ( mi km ) Precip ( " mm )
12:11 am 00:11 Cloudy with Light Rain 51 10.6 43 6.1 74 74 W 16 26 29.71 1006 7 11 0.01 0.25
12:37 am 00:37 Cloudy with Light Rain 49 9.4 43 6.1 80 80 WNW 12 19 29.72 1006 10 16 0.02 0.51
12:46 am 00:46 Cloudy with Light Rain 49 9.4 43 6.1 80 80 NW 9 15 29.71 1006 9 14 0.02 0.51
12:54 am 00:54 Cloudy with Light Rain 49 9.4 43 6.1 80 80 NW 9 15 29.71 1006 7 11 0.04 1.02
1:28 am 01:28 Cloudy 48 8.9 44 6.7 86 86 NNE 7 11 29.68 1005 10 16 0.02 0.51
1:54 am 01:54 Cloudy with Light Rain 48 8.9 44 6.7 86 86 N 8 13 29.67 1005 10 16 0.02 0.51
2:35 am 02:35 Cloudy with Rain 49 9.4 44 6.7 83 83 SW 5 7 29.69 1005 7 11 0.01 0.25
2:42 am 02:42 Cloudy with Rain 49 9.4 44 6.7 83 83 SSW 3 6 29.68 1005 6 10 0.03 0.76
2:54 am 02:54 Cloudy with Light Rain 48 8.9 44 6.7 86 86 Calm 29.67 1005 7 11 0.04 1.02
3:26 am 03:26 Cloudy with Heavy Rain 48 8.9 44 6.7 86 86 ESE 7 11 29.66 1004 6 10 0.05 1.27
3:43 am 03:43 Cloudy with Light Rain 48 8.9 44 6.7 86 86 E 7 11 29.65 1004 10 16 0.05 1.27
3:54 am 03:54 Cloudy 48 8.9 44 6.7 86 86 E 7 11 29.64 1004 10 16 0.05 1.27
4:54 am 04:54 Mostly Cloudy 46 7.8 43 6.1 89 89 SSE 3 6 29.63 1003 10 16 0.00 0.00
5:54 am 05:54 Mostly Cloudy 47 8.3 44 6.7 90 90 Calm 29.64 1004 10 16 0.00 0.00
6:54 am 06:54 Mostly Cloudy 47 8.3 43 6.1 86 86 WSW 6 9 29.65 1004 10 16 0.00 0.00
7:51 am 07:51 Cloudy 48 9 45 7 87 87 WSW 10 17 29.67 1005 10 16 0.00 0.00
7:54 am 07:54 Cloudy with Light Rain 48 8.9 44 6.7 86 86 WSW 15 24 29.67 1005 9 14 0.00 0.00
7:59 am 07:59 Cloudy with Light Rain 48 8.9 44 6.7 86 86 SW 15 24 29.67 1005 4 6 0.00 0.00
8:05 am 08:05 Cloudy with Light Rain 47 8.3 43 6.1 86 86 WSW 13 20 29.67 1005 7 11 0.03 0.76
8:14 am 08:14 Mostly Cloudy with Light Rain 47 8.3 42 5.6 83 83 WSW 14 22 29.67 1005 10 16 0.03 0.76
8:19 am 08:19 Mostly Cloudy 47 8.3 42 5.6 83 83 SW 12 19 29.67 1005 10 16 0.03 0.76
8:51 am 08:51 Mostly Cloudy 46 8 39 4 76 76 WNW 8 13 29.67 1005 10 16 0.03 0.76
8:54 am 08:54 Mostly Cloudy 47 8.3 40 4.4 77 77 WNW 7 11 29.67 1005 10 16 0.03 0.76
9:54 am 09:54 Mostly Cloudy 50 10 42 5.6 74 74 W 15 24 29.67 1005 10 16 0.00 0.00
10:01 am 10:01 Mostly Cloudy 50 10 42 5.6 74 74 WSW 15 24 29.67 1005 10 16 0.00 0.00
10:37 am 10:37 Mostly Cloudy 50 10 41 5 71 71 W 13 20 29.67 1005 10 16 0.00 0.00
10:54 am 10:54 Mostly Cloudy 50 10 40 4.4 68 68 W 10 17 29.67 1005 10 16 0.00 0.00
11:54 am 11:54 Mostly Cloudy 53 11.7 40 4.4 61 61 W 16 26 29.67 1005 10 16 0.00 0.00
12:54 pm 12:54 Cloudy 52 11.1 37 2.8 57 57 WNW 9 15 29.68 1005 10 16 0.00 0.00
1:54 pm 13:54 Mostly Cloudy 54 12.2 36 2.2 51 51 W 9 15 29.66 1004 10 16 0.00 0.00
2:54 pm 14:54 Mostly Cloudy 57 13.9 36 2.2 45 45 WSW 14 22 29.65 1004 10 16 0.00 0.00
3:54 pm 15:54 Mostly Cloudy 56 13.3 36 2.2 47 47 NW 10 17 29.63 1003 10 16 0.00 0.00
4:54 pm 16:54 Mostly Cloudy 57 13.9 34 1.1 42 42 VRB 7 11 29.64 1004 10 16 0.00 0.00
5:44 pm 17:44 Mostly Cloudy 55 12.8 33 0.6 44 44 WNW 12 19 29.65 1004 10 16 0.00 0.00
5:54 pm 17:54 Mostly Cloudy 55 12.8 34 1.1 45 45 WNW 14 22 29.65 1004 10 16 0.00 0.00
6:54 pm 18:54 Mostly Cloudy 54 12.2 34 1.1 47 47 W 9 15 29.66 1005 10 16 0.00 0.00
7:54 pm 19:54 Mostly Cloudy 53 11.7 33 0.6 47 47 W 10 17 29.67 1005 10 16 0.00 0.00
8:54 pm 20:54 Mostly Cloudy 53 11.7 33 0.6 47 47 W 9 15 29.70 1006 10 16 0.00 0.00
9:54 pm 21:54 Mostly Cloudy 52 11.1 34 1.1 50 50 W 9 15 29.71 1006 10 16 0.00 0.00
10:54 pm 22:54 Mostly Cloudy 52 11.1 34 1.1 50 50 W 10 17 29.71 1006 10 16 0.00 0.00
11:54 pm 23:54 Cloudy 51 10.6 35 1.7 54 54 W 8 13 29.72 1006 10 16 0.00 0.00

Powered by AerisWeather